Flag for United Kingdom Weather past 2 weeks in Lichfield, England, United Kingdom

Now
81 °F

Sunny.


Feels Like: 80 °F
Forecast: 64 / 85 °F
Wind: 12 mph from Southeast

Location: Birmingham / Airport

Current Time: Jun 30, 2015 at 2:25:19 PM

Latest Report: Jun 30, 2015 at 1:50 PM


Visibility: 10 mi

Pressure: 30.04 "Hg

Humidity: 37%

Dew point: 52 °F

Location of LichfieldLocation

Historic Weather in Lichfield — Graph

°F

Lichfield temperature yesterday

Maximum temperature yesterday: 73 °F (at 4:50 PM)
Minimum temperature yesterday: 54 °F (at 4:20 AM)
Average temperature yesterday: 63 °F

Past Weeks' High & Low Weather Summary

 TemperatureHumidityPressure
High79 °F (Jun 30, 12:50 PM)100% (Jun 20, 7:20 AM)30.27 "Hg (Jun 20, 7:20 AM)
Low50 °F (Jun 16, 2:50 AM)37% (Jun 30, 12:50 PM)29.80 "Hg (Jun 22, 9:50 AM)
Average61 °F69%30.09 "Hg
* Reported Jun 15 12:20 PM — Jun 30 12:50 PM, Lichfield, Weather by CustomWeather, © 2015

Note: Actual official high and low records may vary slightly from our data, if they occured in-between our weather recording intervals... More about our weather records

Advertising

Lichfield weather history for previous 24 hours

 ConditionsComfort  
Time TempWeatherWind HumidityBarometerVisibility
12:50 PM
Tue, Jun 30
79 °FSunny.12 mph37%30.07 "Hg10 mi
12:20 PM77 °FSunny.10 mph39%30.07 "Hg10 mi
11:50 AM75 °FPassing clouds.10 mph39%30.07 "HgN/A
11:20 AM75 °FSunny.10 mph39%30.09 "Hg10 mi
10:50 AM73 °FSunny.10 mph38%30.09 "Hg10 mi
10:20 AM73 °FSunny.12 mph41%30.09 "Hg10 mi
9:50 AM72 °FSunny.10 mph44%30.09 "Hg10 mi
9:20 AM70 °FPassing clouds.10 mph46%30.09 "HgN/A
8:50 AM70 °FSunny.9 mph53%30.09 "Hg10 mi
8:20 AM66 °FSunny.10 mph56%30.09 "Hg10 mi
7:50 AM66 °FSunny.7 mph64%30.09 "Hg10 mi
7:20 AM63 °FSunny.7 mph73%30.09 "Hg10 mi
6:50 AM59 °FSunny.7 mph82%30.09 "Hg10 mi
6:20 AM57 °FSunny.3 mph88%30.09 "Hg10 mi
5:50 AM57 °FSunny.5 mph88%30.09 "Hg10 mi
5:20 AM55 °FCool.5 mph88%30.12 "HgN/A
4:50 AM55 °FClear.5 mph88%30.12 "Hg10 mi
3:50 AM57 °FClear.3 mph82%30.12 "Hg10 mi
3:20 AM57 °FClear.3 mph82%30.12 "Hg10 mi
2:50 AM57 °FClear.3 mph88%30.12 "Hg10 mi
2:20 AM59 °FClear.3 mph82%30.12 "Hg10 mi
1:50 AM59 °FCool.5 mph82%30.15 "HgN/A
1:20 AM59 °FClear.5 mph82%30.15 "Hg10 mi
12:50 AM61 °FClear.5 mph77%30.15 "Hg10 mi
12:20 AM61 °FClear.5 mph77%30.15 "Hg10 mi
11:50 PM
Mon, Jun 29
61 °FClear.5 mph77%30.15 "Hg10 mi
11:20 PM61 °FCool.3 mph77%30.15 "HgN/A
10:20 PM63 °FSunny.3 mph73%30.15 "Hg10 mi
9:50 PM63 °FSunny.5 mph73%30.15 "Hg10 mi
9:20 PM66 °FSunny.3 mph64%30.15 "Hg10 mi
8:50 PM68 °FSunny.5 mph60%30.12 "Hg10 mi
8:20 PM70 °FSunny.5 mph57%30.12 "Hg10 mi
7:50 PM70 °FPassing clouds.6 mph57%30.12 "HgN/A
7:20 PM70 °FPassing clouds.7 mph57%30.12 "HgN/A
6:50 PM70 °FPassing clouds.8 mph53%30.12 "HgN/A
6:20 PM72 °FPassing clouds.8 mph50%30.15 "HgN/A
5:50 PM72 °FPassing clouds.5 mph50%30.15 "HgN/A
5:20 PM72 °FPassing clouds.8 mph50%30.15 "HgN/A
4:50 PM73 °FPassing clouds.7 mph47%30.15 "HgN/A
4:20 PM72 °FPassing clouds.7 mph50%30.15 "HgN/A
3:50 PM72 °FPassing clouds.9 mph50%30.15 "HgN/A
3:20 PM72 °FPassing clouds.8 mph47%30.15 "HgN/A
2:50 PM70 °FPassing clouds.7 mph53%30.15 "HgN/A
2:20 PM70 °FPassing clouds.9 mph50%30.15 "HgN/A
Weather by CustomWeather, © 2015

See weather overviewHow to use our weather pages